Погода в Старобжегокае

Россия / Республика Адыгея     45°02′06″N   38°53′32″E
темп.,
°C
ветер,
м/с
пор.,
м/с
влажн.,
%
обл.,
%
осадки,
мм/ч
давл.,
гПа
погр.,
м
10 апреля, сб
сб1000:00+4ссв3696100 0.5 1022712
03:00+4св3694100 0.9 1022738
06:00+4ссв3697100 1.1 1021690
09:00+4ссв2596100 2.9 1022725
12:00+5св2496100 1.4 1022728
15:00+5в1393100 2.2 1021317
18:00+5вюв1294100 0.6 1021167
21:00+5вюв1293100 0.9 1021120
11 апреля, вс
вс1100:00+5всв1396100 1.9 1021152
03:00+5с2496100 7.3 1020242
06:00+6св2695100 0.2 1020297
09:00+7св3793100 0.2 1019369
12:00+8всв3690100 0.0 1019524
15:00+9св3486100 0.1 1019644
18:00+8св3796100 2.6 1019373
21:00+8ссв2596100 5.2 1019182
12 апреля, пн
пн1200:00+8ю0195100 0.0 101815
03:00+8ююз1295100 0.2 101954
06:00+8юз3991100 0.0 1020405
09:00+10юз488297 0.0 1021854
12:00+14юз576448 0.0 10211114
15:00+15юз455979 0.0 10211293
18:00+12юз3570100 0.0 1021432
21:00+11юз247397 0.0 1022141
13 апреля, вт
вт1300:00+10з237899 0.0 1022120
03:00+9з2483100 0.1 1022187
06:00+9з3592100 0.8 1022231
09:00+9зюз2394100 1.5 1022238
12:00+9зюз2495100 1.8 1023265
15:00+9юз2495100 2.6 1023288
18:00+9ююз129299 0.3 1023101
21:00+7ююз2392100 0.3 102371
14 апреля, ср
ср1400:00+6ю229150 0.0 102226
03:00+6ююз11925 0.0 102217
06:00+5вюв229422 0.0 102132
09:00+10вюв238152 0.0 1020434
12:00+14юв236532 0.0 10191034
15:00+17ю254686 0.0 10181823
18:00+15ююз2457100 0.0 1018471
21:00+11ю226698 0.0 101853